Location: Althorst
(53.6379°N, 10.7715°E)
Time: 09:45:38
(UTC+00:00)

IRS-1A Rocket - Pass Details

Date: 10 December 2019
Orbit: 852 x 931 km, 99.2° (Epoch: 17 January)

Event Time Altitude Azimuth Distance (km) Brightness Sun altitude
Exits shadow 18:01:25 63° 113° (ESE) 1,033 4.3 -25.8°
Maximum altitude 18:02:09 70° 68° (ENE) 987 4.2 -26.0°
Drops below altitude 10° 18:08:03 10° 346° (NNW) 2,652 6.9 -26.8°
Sets 18:10:31 0° 345° (NNW) 3,600 7.6 -27.2°
